sat.trackr.live / text

‹ back to catalog

STARLINK-6155

NORAD 57076 · 2023-088AE

PAYLOAD ACTIVE UNKNOWN

§ Identity

Operator
Country
US
Launch date
2023-06-22
Launch site
AFWTR
Launch vehicle
Mass (kg)
RCS (m²)

Purposes: comms

External: N2YO · Heavens-Above · Gunter

§ Orbital elements

Epoch: 2026-05-24T23:15:21.600000Z

Period
94.27 min
Inclination
43.0057°
Eccentricity
0.0001282
Mean motion
15.27576964 rev/d
Perigee alt
482.2 km
Apogee alt
483.9 km
Semi-major
6,861.2 km
B*
9.9741e-6
RAAN
25.5680°
Arg perigee
265.2545°
Mean anomaly
94.8161°
Rev number
16,199

§ Raw data

STARLINK-61551 57076U 23088AE  26144.96900000  .00000012  00000+0  99741-5 0  99942 57076  43.0057  25.5680 0001282 265.2545  94.8161 15.27576964161991

JSON: /api/v1/satellites/57076 · /tle

For live sub-satellite position, see the globe view (requires WebGL).

§ Visibility from observer

Set your observer location to see the next 7 days of passes ≥ 10°. The values pass through the URL so the page stays shareable.

No JS? Fill the form by hand. The geolocation button needs JavaScript.